Regional Weather Roundup
Issued by NWS Newport/Morehead, NC

Current Version | Previous Version | Graphics & Text | Print | Product List | Glossary On
Versions: 1 2 3 4 5 6 7 8 9 10 11 12 13 14 15 16 17 18 19 20 21 22 23 24 25 26 27 28 29 30 31 32 33 34 35 36 37 38 39 40 41 42 43 44 45 46 47 48 49 50
906 ASUS42 KMHX 231325 RWRMHX WEATHER ROUNDUP FOR EASTERN NORTH CAROLINA NATIONAL WEATHER SERVICE NEWPORT/MOREHEAD CITY NC 900 AM EDT WED MAY 23 2018 NOTE: "FAIR" INDICATES FEW OR NO CLOUDS BELOW 12,000 FEET WITH NO SIGNIFICANT WEATHER AND/OR OBSTRUCTIONS TO VISIBILITY NCZ015>017-031-032-045>047-102-103-231400- NORTH COAST CITY SKY/WX TMP DP RH WIND PRES REMARKS EDENTON FAIR 77 72 84 SW8 30.05S ELIZABETH CITY PTSUNNY 76 72 87 SW14 30.03S KITTY HAWK FAIR 75 69 81 SW6 30.03S MANTEO FAIR 76 69 79 W13G18 30.05S $$ NCZ045>047-081-094-103-104-231400- CENTRAL COAST CITY SKY/WX TMP DP RH WIND PRES REMARKS FRISCO FAIR 76 72 87 W9G20 30.08R $$ NCZ095-097-098-100-101-231400- SOUTHERN COAST CITY SKY/WX TMP DP RH WIND PRES REMARKS BEAUFORT FAIR 77 73 87 SW15G24 30.09S CEDAR ISLAND NOT AVBL JACKSONVILLE PTSUNNY 77 72 84 SW10G21 30.09S PINEY ISLAND NOT AVBL WILMINGTON PTSUNNY 78 70 76 SW16G23 30.11R $$ NCZ011>013-027>030-043-044-078>080-089-090>093-098-231400- COASTAL PLAIN CITY SKY/WX TMP DP RH WIND PRES REMARKS AHOSKIE FAIR 75 72 89 CALM 30.04S CLINTON CLOUDY 74 71 92 SW9G16 30.10S ELIZABETHTOWN CLOUDY 75 69 82 SW8 30.11F GOLDSBORO CLOUDY 73 69 88 SW14 30.07R GREENVILLE CLOUDY 73 70 88 SW9 30.09R HAVELOCK PTSUNNY 80 73 79 SW13 30.09S KENANSVILLE CLOUDY 73 70 88 SW9 30.10S KINSTON CLOUDY 75 70 83 SW8 30.09R NEW BERN PTSUNNY 76 70 82 W12G21 30.09S RICHLANDS CLOUDY 75 71 87 SW12 30.10S ROCKY MOUNT PTSUNNY 76 70 82 SW10 30.06S WASHINGTON CLOUDY 76 70 82 CALM 30.08R WHITEVILLE CLOUDY 76 70 83 SW7 30.11S $$ AMZ130-135-150-152-154-156-158-170-250-252-270-ANZ085-086-088-633-658-670-231400- MARINE OBSERVATIONS STATION/POSITION TIME TEMP WIND PRES WAVE SWELL AIR SEA DIR/SP/G HT/PER HT/PER (UTC) (F) (DEG/KT/KT) (MB) (FT/S) (FT/S) CHESAPEAKE LIGHT NOT AVBL 64 E VA BEACH 1250 70 68 230/ 12/ 14 1016.9 4/ 5 2/ 8 DUCK 1300 74 64 240/ 14/ 18 1016.8 2 E DUCK 1300 66 N/A 2/ 8 OREGON INLET 1248 75 76 230/ 17/ 19 1017.1 13E OREGON INLT 1248 65 N/A 3/ 5 2/ 8 HATTERAS CG 1300 77 74 240/ 10/ 16 1018.0 DIAMOND BUOY 1300 75 74 250/ 14/ 17 1018.9 CAPE LOOKOUT 1300 220/ 10/ 14 1019.3 BEAUFORT LAB 1300 77 77 230/ 5/ 12 1019.3 30 SE NEW RVR IN 1308 75 230/ 10/ 14 1019.7 30 SE NEW RVR IN 1300 75 N/A 4/ 8 27 SE WRIGHTSVLE 1308 75 75 230/ 14/ 17 1019.8 5 SE WRIGHTSVLE 1308 73 73 320/ 8/ 12 1019.1 225 S CAPE HAT 1300 77 190/ 10/ 12 1021.5 41 SE CHARLESTON 1300 74 240/ 6/ 8 1020.5 $$

USA.gov is the U.S. government's official web portal to all federal, state and local government web resources and services.